{"data":{"norad_id":62993,"epoch":"2026-05-24T18:00:42.494976Z","epoch_age_seconds":86771,"freshness":"FRESH","line1":"1 62993U 25031N   26144.75049184  .00153705  00000+0  11798-2 0  9993","line2":"2 62993  43.0009 263.0901 0001261 267.9315  92.1408 15.70830824 74699","mean_motion":15.70830824,"eccentricity":0.0001261,"inclination_deg":43.0009,"raan_deg":263.0901,"arg_perigee_deg":267.9315,"mean_anomaly_deg":92.1408,"bstar":0.0011798,"rev_number":7469,"period_min":91.671233973697,"perigee_km":355.67204801138,"apogee_km":357.37052883172,"semimajor_km":6734.6582884216,"source":"CELESTRAK","updated_at":"2026-05-25T13:38:19.832599Z"}}